EAG5508 SBGR-KMIA

Flight info

Callsign EAG5508
Flight time N/A
Altitude 32000
Route GERTU UL304 OPNUS UM417 KONKI UL304 BRUTI UM417 GIKVI/N0486F340 UM417 ISUNU UM409 VUMPI UL795 DOLPO/N0477F360 UL795 ALTIB UM779 ZEUSS VIICE2
Aircraft MD11/H-SDE1E2E3FGHIJ2J3J4J5M1RWXY/LB1D1

Departure

Time 2026-04-30 15:17
Airport São Paulo/Guarulhos–Governor André Franco Montoro International Airport (SBGR)

Arrival

Time N/A
Airport Miami International Airport (KMIA)
Time Latitude Longitude Altitude Speed Heading
2026-04-30 15:08 -23.42821 -46.47502 2476 ft 0 kts 165°
2026-04-30 15:11 -23.42868 -46.47488 2476 ft 7 kts 165°
2026-04-30 15:11 -23.43002 -46.47452 2476 ft 11 kts 189°
2026-04-30 15:12 -23.43108 -46.47791 2476 ft 20 kts 253°
2026-04-30 15:13 -23.43193 -46.48103 2476 ft 21 kts 254°
2026-04-30 15:14 -23.43407 -46.48275 2477 ft 16 kts 105°
2026-04-30 15:14 -23.43392 -46.48194 2477 ft 0 kts 71°
2026-04-30 15:16 -23.42874 -46.46288 2478 ft 178 kts 73°
2026-04-30 15:17 -23.40470 -46.41301 4554 ft 195 kts 29°
2026-04-30 15:18 -23.34202 -46.36076 6093 ft 284 kts 43°
2026-04-30 15:19 -23.29911 -46.31420 8151 ft 296 kts 44°
2026-04-30 17:39 -8.36016 -56.71295 31872 ft 488 kts 334°
2026-04-30 17:42 -8.06100 -56.87464 31868 ft 489 kts 334°
2026-04-30 17:43 -7.91127 -56.95547 31861 ft 489 kts 334°
2026-04-30 17:44 -7.73131 -57.05253 31859 ft 489 kts 334°
2026-04-30 17:47 -7.46157 -57.19784 31856 ft 490 kts 334°
2026-04-30 17:48 -7.25179 -57.31067 31850 ft 489 kts 334°
2026-04-30 17:50 -7.01203 -57.43951 31847 ft 489 kts 334°
2026-04-30 17:52 -6.83233 -57.53599 31848 ft 489 kts 334°
2026-04-30 17:54 -6.56252 -57.68066 31848 ft 491 kts 334°
2026-04-30 17:56 -6.32216 -57.80939 31848 ft 489 kts 334°
2026-04-30 17:58 -6.14215 -57.90572 31851 ft 489 kts 334°
2026-04-30 18:00 -5.90283 -58.03367 31848 ft 488 kts 333°
2026-04-30 18:01 -5.75354 -58.11339 31852 ft 488 kts 333°
2026-04-30 18:02 -5.57418 -58.20914 31847 ft 488 kts 333°
2026-04-30 18:04 -5.39438 -58.30506 31842 ft 488 kts 333°
2026-04-30 18:06 -5.15498 -58.43268 31839 ft 488 kts 333°
2026-04-30 18:08 -4.94586 -58.54403 31842 ft 486 kts 333°
2026-04-30 18:10 -4.70693 -58.67120 31838 ft 487 kts 333°
2026-04-30 18:11 -4.58746 -58.73475 33017 ft 482 kts 333°
2026-04-30 18:11 -4.49903 -58.78117 33807 ft 480 kts 334°
2026-04-30 18:13 -4.35119 -58.85791 33832 ft 479 kts 334°
2026-04-30 18:14 -4.20368 -58.93456 33840 ft 481 kts 334°
2026-04-30 18:15 -4.02530 -59.02720 33850 ft 482 kts 334°
2026-04-30 18:16 -3.90628 -59.08898 33851 ft 481 kts 333°
2026-04-30 18:17 -3.84689 -59.11980 33850 ft 481 kts 333°
2026-04-30 18:18 -3.75813 -59.16587 33843 ft 481 kts 333°
2026-04-30 18:18 -3.69876 -59.19668 33842 ft 481 kts 333°
2026-04-30 18:19 -3.63936 -59.22749 33838 ft 481 kts 333°
2026-04-30 18:19 -3.57995 -59.25831 33829 ft 480 kts 333°
2026-04-30 18:20 -3.52099 -59.28889 33831 ft 481 kts 333°
2026-04-30 18:20 -3.46152 -59.31972 33835 ft 481 kts 333°
2026-04-30 18:21 -3.40235 -59.35041 33837 ft 478 kts 333°
2026-04-30 18:21 -3.34328 -59.38105 33834 ft 478 kts 333°
2026-04-30 18:22 -3.28434 -59.41165 33835 ft 477 kts 333°
2026-04-30 18:22 -3.19598 -59.45753 33836 ft 480 kts 333°
2026-04-30 18:23 -3.13677 -59.48825 33836 ft 479 kts 333°
2026-04-30 18:23 -3.07746 -59.51899 33835 ft 480 kts 333°
2026-04-30 18:24 -2.98930 -59.56546 33838 ft 480 kts 333°
2026-04-30 18:25 -2.93037 -59.59698 33835 ft 481 kts 333°
2026-04-30 18:25 -2.84204 -59.64431 33839 ft 480 kts 333°
2026-04-30 18:26 -2.75418 -59.69134 33838 ft 480 kts 333°
2026-04-30 18:27 -2.66590 -59.73857 33839 ft 480 kts 333°
2026-04-30 18:28 -2.57768 -59.78577 33838 ft 479 kts 333°
2026-04-30 18:28 -2.48997 -59.83268 33840 ft 479 kts 333°
2026-04-30 18:29 -2.37243 -59.89554 33836 ft 479 kts 333°
2026-04-30 18:30 -2.25531 -59.95818 33838 ft 478 kts 333°
2026-04-30 18:31 -2.17729 -60.02065 33838 ft 483 kts 317°
2026-04-30 18:32 -2.10614 -60.09208 33841 ft 483 kts 317°
2026-04-30 18:33 -2.03425 -60.16198 33841 ft 483 kts 318°
2026-04-30 18:33 -1.96124 -60.23168 33840 ft 486 kts 318°
2026-04-30 18:34 -1.88775 -60.30176 33834 ft 487 kts 318°
2026-04-30 18:35 -1.83910 -60.34820 33831 ft 487 kts 318°
2026-04-30 18:35 -1.79010 -60.39498 33836 ft 487 kts 318°
2026-04-30 18:36 -1.71661 -60.46512 33833 ft 487 kts 319°
2026-04-30 18:37 -1.64355 -60.53484 33833 ft 487 kts 318°
2026-04-30 18:37 -1.59448 -60.58166 33836 ft 488 kts 318°
2026-04-30 18:38 -1.54539 -60.62850 33833 ft 488 kts 318°
2026-04-30 18:38 -1.49631 -60.67533 33836 ft 488 kts 318°
2026-04-30 18:39 -1.44753 -60.72187 33836 ft 488 kts 318°
2026-04-30 18:39 -1.39843 -60.76870 33832 ft 487 kts 318°
2026-04-30 18:40 -1.34972 -60.81568 33830 ft 487 kts 317°
2026-04-30 18:40 -1.30180 -60.86350 33834 ft 488 kts 316°
2026-04-30 18:41 -1.25393 -60.91164 33833 ft 488 kts 316°
2026-04-30 18:41 -1.20637 -60.95936 33831 ft 488 kts 317°
2026-04-30 18:42 -1.15843 -61.00738 33829 ft 488 kts 317°
2026-04-30 18:42 -1.08659 -61.07931 33832 ft 485 kts 317°
2026-04-30 18:45 -0.82529 -61.34089 33826 ft 485 kts 317°
2026-04-30 18:46 -0.77779 -61.38845 33834 ft 483 kts 317°
2026-04-30 18:46 -0.73032 -61.43595 33836 ft 483 kts 317°
2026-04-30 18:47 -0.68286 -61.48345 33830 ft 483 kts 317°
2026-04-30 18:47 -0.63565 -61.53069 33834 ft 484 kts 317°
2026-04-30 18:48 -0.58808 -61.57830 33831 ft 484 kts 317°
2026-04-30 18:48 -0.54046 -61.62597 33833 ft 484 kts 317°
2026-04-30 18:49 -0.49287 -61.67360 33835 ft 484 kts 317°
2026-04-30 18:49 -0.44526 -61.72125 33836 ft 484 kts 317°
2026-04-30 18:50 -0.39796 -61.76859 33833 ft 484 kts 317°
2026-04-30 18:50 -0.35031 -61.81627 33835 ft 485 kts 317°
2026-04-30 18:51 -0.30270 -61.86391 33835 ft 485 kts 317°
2026-04-30 18:51 -0.25506 -61.91159 33838 ft 485 kts 317°
2026-04-30 18:52 -0.20775 -61.95894 33830 ft 485 kts 317°
2026-04-30 18:52 -0.16012 -62.00660 33840 ft 485 kts 317°
2026-04-30 18:53 -0.11246 -62.05429 33838 ft 485 kts 317°
2026-04-30 18:53 -0.06482 -62.10196 33836 ft 485 kts 317°
2026-04-30 18:54 -0.01718 -62.14963 33838 ft 485 kts 317°
2026-04-30 18:54 0.03018 -62.19703 33839 ft 485 kts 317°
2026-04-30 18:55 0.07787 -62.24475 33833 ft 485 kts 317°
2026-04-30 18:55 0.14942 -62.31635 33838 ft 485 kts 317°
2026-04-30 18:56 0.22068 -62.38766 33836 ft 485 kts 317°
2026-04-30 18:57 0.29223 -62.45926 33836 ft 485 kts 317°
2026-04-30 18:57 0.33996 -62.50703 33838 ft 485 kts 317°
2026-04-30 18:58 0.41120 -62.57831 33832 ft 484 kts 316°
2026-04-30 18:59 0.48261 -62.64979 33835 ft 484 kts 317°
2026-04-30 19:00 0.57775 -62.74500 33835 ft 484 kts 317°
2026-04-30 19:01 0.67259 -62.83992 33837 ft 484 kts 316°
2026-04-30 19:02 0.74418 -62.91156 33838 ft 487 kts 316°
2026-04-30 19:03 0.83952 -63.00701 33833 ft 487 kts 316°
2026-04-30 19:04 0.93522 -63.10281 33843 ft 487 kts 316°
2026-04-30 19:05 1.03057 -63.19827 33846 ft 487 kts 316°
2026-04-30 19:06 1.12760 -63.29275 33854 ft 486 kts 322°
2026-04-30 19:06 1.20743 -63.35436 33855 ft 486 kts 324°
2026-04-30 19:07 1.28827 -63.41541 33846 ft 486 kts 324°
2026-04-30 19:08 1.39548 -63.49757 33840 ft 487 kts 324°
2026-04-30 19:09 1.47580 -63.55918 33836 ft 488 kts 324°
2026-04-30 19:09 1.52965 -63.60048 33835 ft 488 kts 324°
2026-04-30 19:10 1.63733 -63.68306 33834 ft 488 kts 324°
2026-04-30 19:11 1.71768 -63.74469 33837 ft 488 kts 323°
2026-04-30 19:12 1.77240 -63.78518 33843 ft 491 kts 327°
2026-04-30 19:12 1.82919 -63.82311 33849 ft 490 kts 328°
2026-04-30 19:13 1.94287 -63.89771 33852 ft 491 kts 328°
2026-04-30 19:14 1.99974 -63.93536 33852 ft 490 kts 328°
2026-04-30 19:14 2.05661 -63.97306 33853 ft 491 kts 328°
2026-04-30 19:15 2.11349 -64.01076 33849 ft 490 kts 327°
2026-04-30 19:15 2.19826 -64.06694 33857 ft 490 kts 327°
2026-04-30 19:16 2.25511 -64.10462 33855 ft 490 kts 327°
2026-04-30 19:17 2.34030 -64.16109 33849 ft 490 kts 327°
2026-04-30 19:17 2.42517 -64.21735 33850 ft 490 kts 327°
2026-04-30 19:18 2.51029 -64.27381 33851 ft 490 kts 327°
2026-04-30 19:19 2.56706 -64.31147 33850 ft 489 kts 327°
2026-04-30 19:19 2.65213 -64.36789 33840 ft 490 kts 327°
2026-04-30 19:20 2.70851 -64.40528 33837 ft 489 kts 327°
2026-04-30 19:21 2.79344 -64.46163 33847 ft 488 kts 327°
2026-04-30 19:22 2.90639 -64.53659 33829 ft 487 kts 327°
2026-04-30 19:23 3.07542 -64.64878 33829 ft 487 kts 327°
2026-04-30 19:24 3.15976 -64.70478 33830 ft 487 kts 327°
2026-04-30 19:25 3.30091 -64.79854 33827 ft 487 kts 327°
2026-04-30 19:26 3.41348 -64.87332 33831 ft 487 kts 327°
2026-04-30 19:27 3.49812 -64.92957 33834 ft 487 kts 327°
2026-04-30 19:28 3.58277 -64.98583 33822 ft 486 kts 326°
2026-04-30 19:29 3.69521 -65.06059 33835 ft 487 kts 326°
2026-04-30 19:30 3.80798 -65.13558 33847 ft 487 kts 326°
2026-04-30 19:31 3.92043 -65.21041 33854 ft 487 kts 326°
2026-04-30 19:31 4.00509 -65.26676 33856 ft 486 kts 326°
2026-04-30 19:32 4.06148 -65.30429 33864 ft 487 kts 326°
2026-04-30 19:32 4.11751 -65.34158 33867 ft 486 kts 326°
2026-04-30 19:33 4.17379 -65.37905 33864 ft 486 kts 326°
2026-04-30 19:33 4.23006 -65.41652 33860 ft 485 kts 326°
2026-04-30 19:34 4.28624 -65.45394 33858 ft 485 kts 326°
2026-04-30 19:35 4.37010 -65.50981 33853 ft 485 kts 326°
2026-04-30 19:35 4.42622 -65.54721 33854 ft 485 kts 325°
2026-04-30 19:36 4.48239 -65.58464 33848 ft 485 kts 326°
2026-04-30 19:36 4.56608 -65.64043 33834 ft 482 kts 325°
2026-04-30 19:37 4.62185 -65.67763 33819 ft 481 kts 324°
2026-04-30 19:37 4.67758 -65.71481 33820 ft 481 kts 325°
2026-04-30 19:38 4.73335 -65.75201 33801 ft 481 kts 325°
2026-04-30 19:38 4.78873 -65.78895 33801 ft 481 kts 325°
2026-04-30 19:39 4.84449 -65.82616 33802 ft 481 kts 325°
2026-04-30 19:39 4.90032 -65.86343 33797 ft 483 kts 325°
2026-04-30 19:40 4.95634 -65.90083 33791 ft 484 kts 325°
2026-04-30 19:40 5.01207 -65.93804 33799 ft 484 kts 325°
2026-04-30 19:41 5.06812 -65.97547 33788 ft 484 kts 325°
2026-04-30 19:41 5.12420 -66.01293 33791 ft 484 kts 325°
2026-04-30 19:42 5.18028 -66.05040 33791 ft 484 kts 325°
2026-04-30 19:42 5.23596 -66.08761 33792 ft 484 kts 325°
2026-04-30 19:43 5.29202 -66.12510 33799 ft 484 kts 325°
2026-04-30 19:44 5.37604 -66.18130 33800 ft 484 kts 325°
2026-04-30 19:44 5.43209 -66.21879 33802 ft 484 kts 325°
2026-04-30 19:45 5.48813 -66.25627 33836 ft 484 kts 324°
2026-04-30 19:45 5.54336 -66.29321 33834 ft 479 kts 324°
2026-04-30 19:46 5.59875 -66.33029 33847 ft 479 kts 324°
2026-04-30 19:46 5.65438 -66.36753 33845 ft 481 kts 324°
2026-04-30 19:47 5.71009 -66.40483 33842 ft 481 kts 324°
2026-04-30 19:47 5.76544 -66.44190 33848 ft 481 kts 324°
2026-04-30 19:48 5.82113 -66.47921 33848 ft 481 kts 324°
2026-04-30 19:48 5.87681 -66.51651 33848 ft 481 kts 324°
2026-04-30 19:49 5.93254 -66.55387 33847 ft 481 kts 324°
2026-04-30 19:49 6.01535 -66.60940 33823 ft 476 kts 323°
2026-04-30 19:50 6.07045 -66.64636 33833 ft 476 kts 323°
2026-04-30 19:50 6.12551 -66.68331 33833 ft 476 kts 323°
2026-04-30 19:51 6.18054 -66.72023 33829 ft 476 kts 323°
2026-04-30 19:51 6.23523 -66.75693 33827 ft 476 kts 323°
2026-04-30 19:52 6.29020 -66.79383 33822 ft 475 kts 323°
2026-04-30 19:52 6.34541 -66.83091 33823 ft 479 kts 323°
2026-04-30 19:53 6.40088 -66.86818 33803 ft 480 kts 323°
2026-04-30 19:53 6.45604 -66.90523 33798 ft 480 kts 323°
2026-04-30 19:54 6.51157 -66.94254 33803 ft 480 kts 323°
2026-04-30 19:54 6.56719 -66.97987 33815 ft 481 kts 323°
2026-04-30 19:55 6.62292 -67.01706 33795 ft 481 kts 324°
2026-04-30 19:55 6.67867 -67.05420 33793 ft 481 kts 324°
2026-04-30 19:56 6.73402 -67.09108 33794 ft 481 kts 324°
2026-04-30 19:56 6.78978 -67.12826 33803 ft 481 kts 324°
2026-04-30 19:57 6.84552 -67.16544 33793 ft 481 kts 323°
2026-04-30 19:57 6.90125 -67.20262 33794 ft 481 kts 323°
2026-04-30 19:58 6.95656 -67.23954 33796 ft 479 kts 324°
2026-04-30 19:58 7.01206 -67.27661 33793 ft 479 kts 324°
2026-04-30 19:59 7.06749 -67.31366 33796 ft 478 kts 324°
2026-04-30 20:00 7.14123 -67.36295 33797 ft 478 kts 324°
2026-04-30 20:00 7.20558 -67.40597 33798 ft 478 kts 324°
2026-04-30 20:01 7.28862 -67.46152 33798 ft 478 kts 324°
2026-04-30 20:01 7.33460 -67.49230 33795 ft 478 kts 324°
2026-04-30 20:02 7.41748 -67.54789 33801 ft 476 kts 323°
2026-04-30 20:03 7.50876 -67.60912 33798 ft 473 kts 323°
2026-04-30 20:03 7.55431 -67.63969 33799 ft 473 kts 323°
2026-04-30 20:04 7.60912 -67.67649 33802 ft 473 kts 323°
2026-04-30 20:05 7.69135 -67.73171 33804 ft 473 kts 323°
2026-04-30 20:05 7.77355 -67.78694 33801 ft 474 kts 323°
2026-04-30 20:06 7.82804 -67.82356 33798 ft 474 kts 323°
2026-04-30 20:06 7.88288 -67.86043 33798 ft 474 kts 323°
2026-04-30 20:07 7.93774 -67.89732 33801 ft 474 kts 323°
2026-04-30 20:08 8.01969 -67.95247 33798 ft 474 kts 323°
2026-04-30 20:08 8.07451 -67.98941 33800 ft 474 kts 323°
2026-04-30 20:09 8.12943 -68.02642 33801 ft 476 kts 323°
2026-04-30 20:09 8.21211 -68.08212 33798 ft 476 kts 323°
2026-04-30 20:10 8.29443 -68.13760 33801 ft 476 kts 323°
2026-04-30 20:11 8.37708 -68.19334 33805 ft 476 kts 323°
2026-04-30 20:11 8.43219 -68.23052 33808 ft 476 kts 323°
2026-04-30 20:12 8.51475 -68.28626 33806 ft 480 kts 323°
2026-04-30 20:13 8.57035 -68.32380 33804 ft 481 kts 323°
2026-04-30 20:13 8.62593 -68.36134 33805 ft 481 kts 323°
2026-04-30 20:14 8.68152 -68.39890 33804 ft 481 kts 323°
2026-04-30 20:14 8.73708 -68.43648 33804 ft 481 kts 323°
2026-04-30 20:15 8.79225 -68.47383 33806 ft 481 kts 323°
2026-04-30 20:15 8.84778 -68.51141 33808 ft 479 kts 323°
2026-04-30 20:16 8.90319 -68.54890 33804 ft 479 kts 323°
2026-04-30 20:16 8.95862 -68.58643 33805 ft 480 kts 323°
2026-04-30 20:17 9.01375 -68.62376 33807 ft 480 kts 323°
2026-04-30 20:17 9.06923 -68.66136 33807 ft 480 kts 323°
2026-04-30 20:18 9.12465 -68.69894 33808 ft 480 kts 323°
2026-04-30 20:18 9.18014 -68.73656 33809 ft 480 kts 323°
2026-04-30 20:19 9.23537 -68.77402 33809 ft 477 kts 323°
2026-04-30 20:19 9.29010 -68.81115 33810 ft 477 kts 323°
2026-04-30 20:20 9.34515 -68.84852 33808 ft 477 kts 323°
2026-04-30 20:20 9.40027 -68.88596 33812 ft 478 kts 324°
2026-04-30 20:21 9.45554 -68.92350 33812 ft 478 kts 324°
2026-04-30 20:21 9.51045 -68.96081 33820 ft 478 kts 324°
2026-04-30 20:22 9.56568 -68.99835 33827 ft 476 kts 323°
2026-04-30 20:22 9.62057 -69.03567 33834 ft 474 kts 323°
2026-04-30 20:23 9.67535 -69.07296 33835 ft 474 kts 323°
2026-04-30 20:23 9.73008 -69.11023 33835 ft 474 kts 323°
2026-04-30 20:24 9.78447 -69.14726 33847 ft 474 kts 323°
2026-04-30 20:24 9.83928 -69.18459 33849 ft 474 kts 323°
2026-04-30 20:25 9.92164 -69.24070 33892 ft 476 kts 323°
2026-04-30 20:26 10.00357 -69.29654 33911 ft 475 kts 323°
2026-04-30 20:26 10.08585 -69.35268 33911 ft 475 kts 323°
2026-04-30 20:27 10.19556 -69.42758 33840 ft 475 kts 323°
2026-04-30 20:28 10.30482 -69.50221 33841 ft 475 kts 323°
2026-04-30 20:30 10.44147 -69.59570 33832 ft 472 kts 323°
2026-04-30 20:31 10.60447 -69.70732 33830 ft 472 kts 323°
2026-04-30 20:32 10.74023 -69.80025 33825 ft 472 kts 324°
2026-04-30 20:33 10.82181 -69.85628 33820 ft 473 kts 325°
2026-04-30 20:34 10.90330 -69.91227 33819 ft 474 kts 324°
2026-04-30 20:34 10.95806 -69.94993 34069 ft 475 kts 324°
2026-04-30 20:35 10.98543 -69.96874 34453 ft 475 kts 324°
2026-04-30 20:35 11.01284 -69.98759 34788 ft 475 kts 324°
2026-04-30 20:35 11.06759 -70.02527 35492 ft 475 kts 323°
2026-04-30 20:36 11.09496 -70.04411 35736 ft 475 kts 323°
2026-04-30 20:36 11.12228 -70.06291 35782 ft 473 kts 323°
2026-04-30 20:37 11.20366 -70.11891 35800 ft 473 kts 323°
2026-04-30 20:37 11.25812 -70.15640 35796 ft 473 kts 323°
2026-04-30 20:38 11.31261 -70.19393 35798 ft 472 kts 323°
2026-04-30 20:38 11.36671 -70.23120 35802 ft 472 kts 322°
2026-04-30 20:39 11.44833 -70.28747 35789 ft 472 kts 322°
2026-04-30 20:40 11.52991 -70.34377 35801 ft 472 kts 322°
2026-04-30 20:40 11.58390 -70.38104 35798 ft 472 kts 322°
2026-04-30 20:41 11.66537 -70.43760 35804 ft 472 kts 321°
2026-04-30 20:41 11.71965 -70.47530 35793 ft 472 kts 321°
2026-04-30 20:42 11.77335 -70.51249 35795 ft 468 kts 321°
2026-04-30 20:43 11.85408 -70.56843 35812 ft 467 kts 321°
2026-04-30 20:43 11.90775 -70.60565 35796 ft 466 kts 321°
2026-04-30 20:44 11.98825 -70.66151 35800 ft 466 kts 321°
2026-04-30 20:45 12.09521 -70.73579 35821 ft 465 kts 321°
2026-04-30 20:45 12.14855 -70.77285 35817 ft 463 kts 321°
2026-04-30 20:46 12.25466 -70.84669 35823 ft 463 kts 321°
2026-04-30 20:47 12.33446 -70.90226 35824 ft 462 kts 321°
2026-04-30 20:48 12.41419 -70.95777 35830 ft 462 kts 321°
2026-04-30 20:48 12.46691 -70.99451 35834 ft 461 kts 321°
2026-04-30 20:49 12.52015 -71.03107 35832 ft 461 kts 322°
2026-04-30 20:50 12.60076 -71.08479 35834 ft 461 kts 323°
2026-04-30 20:50 12.65454 -71.12058 35832 ft 461 kts 322°
2026-04-30 20:51 12.70794 -71.15620 35835 ft 461 kts 322°
2026-04-30 20:51 12.78855 -71.21003 35835 ft 461 kts 322°
2026-04-30 20:52 12.84237 -71.24602 35843 ft 464 kts 323°
2026-04-30 20:53 12.92314 -71.30002 35838 ft 464 kts 323°
2026-04-30 20:53 12.97721 -71.33619 35839 ft 464 kts 323°
2026-04-30 20:54 13.05839 -71.39054 35841 ft 464 kts 323°
2026-04-30 20:55 13.13910 -71.44465 35841 ft 464 kts 323°
2026-04-30 20:55 13.19323 -71.48098 35844 ft 465 kts 323°
2026-04-30 20:56 13.27466 -71.53560 35846 ft 466 kts 323°
2026-04-30 20:57 13.35593 -71.59015 35844 ft 470 kts 323°
2026-04-30 20:57 13.41071 -71.62693 35849 ft 471 kts 323°
2026-04-30 20:58 13.49298 -71.68221 35848 ft 471 kts 323°
2026-04-30 20:58 13.54787 -71.71911 35856 ft 472 kts 322°
2026-04-30 20:59 13.62997 -71.77437 35854 ft 473 kts 322°
2026-04-30 21:00 13.74002 -71.84851 35859 ft 473 kts 322°
2026-04-30 21:01 13.82252 -71.90415 35857 ft 473 kts 322°
2026-04-30 21:02 13.90483 -71.95971 35856 ft 475 kts 322°
2026-04-30 21:02 13.96014 -71.99686 35859 ft 475 kts 322°
2026-04-30 21:03 14.01547 -72.03402 35858 ft 475 kts 322°
2026-04-30 21:03 14.07081 -72.07120 35860 ft 475 kts 322°
2026-04-30 21:04 14.12572 -72.10813 35858 ft 475 kts 322°
2026-04-30 21:04 14.20866 -72.16396 35858 ft 475 kts 322°
2026-04-30 21:05 14.26396 -72.20120 35864 ft 474 kts 321°
2026-04-30 21:05 14.31903 -72.23832 35861 ft 473 kts 321°
2026-04-30 21:06 14.37347 -72.27538 35862 ft 471 kts 321°
2026-04-30 21:06 14.42808 -72.31279 35862 ft 471 kts 321°
2026-04-30 21:07 14.48268 -72.35021 35869 ft 471 kts 321°
2026-04-30 21:07 14.53723 -72.38758 35868 ft 471 kts 321°
2026-04-30 21:08 14.59143 -72.42472 35864 ft 471 kts 321°
2026-04-30 21:08 14.64606 -72.46211 35872 ft 472 kts 321°
2026-04-30 21:09 14.70081 -72.49950 35867 ft 472 kts 321°
2026-04-30 21:09 14.75554 -72.53686 35868 ft 472 kts 321°
2026-04-30 21:10 14.81032 -72.57428 35873 ft 472 kts 321°
2026-04-30 21:10 14.86464 -72.61141 35876 ft 471 kts 321°
2026-04-30 21:11 14.91922 -72.64873 35870 ft 470 kts 321°
2026-04-30 21:11 14.97371 -72.68603 35879 ft 469 kts 320°
2026-04-30 21:12 15.02795 -72.72316 35870 ft 466 kts 320°
2026-04-30 21:12 15.08161 -72.75995 35871 ft 466 kts 320°
2026-04-30 21:13 15.13562 -72.79699 35876 ft 466 kts 320°
2026-04-30 21:13 15.18965 -72.83407 35878 ft 466 kts 320°
2026-04-30 21:14 15.24365 -72.87114 35878 ft 466 kts 320°
2026-04-30 21:14 15.29728 -72.90799 35879 ft 466 kts 320°
2026-04-30 21:15 15.35123 -72.94513 35889 ft 465 kts 320°
2026-04-30 21:15 15.40505 -72.98220 35882 ft 464 kts 320°
2026-04-30 21:16 15.45885 -73.01925 35887 ft 464 kts 320°
2026-04-30 21:16 15.51230 -73.05606 35872 ft 464 kts 320°
2026-04-30 21:17 15.56611 -73.09312 35877 ft 464 kts 320°
2026-04-30 21:17 15.61993 -73.13015 35887 ft 464 kts 320°
2026-04-30 21:18 15.67376 -73.16719 35886 ft 464 kts 320°
2026-04-30 21:18 15.72756 -73.20421 35884 ft 464 kts 320°
2026-04-30 21:19 15.78093 -73.24097 35883 ft 464 kts 320°
2026-04-30 21:19 15.83467 -73.27802 35886 ft 463 kts 320°
2026-04-30 21:20 15.88836 -73.31505 35887 ft 463 kts 320°
2026-04-30 21:20 15.94202 -73.35208 35887 ft 463 kts 320°
2026-04-30 21:21 15.99531 -73.38889 35887 ft 463 kts 320°
2026-04-30 21:22 16.07566 -73.44442 35887 ft 462 kts 320°
2026-04-30 21:23 16.18251 -73.51836 35892 ft 461 kts 320°
2026-04-30 21:23 16.26220 -73.57360 35892 ft 461 kts 319°
2026-04-30 21:24 16.31551 -73.61064 35892 ft 461 kts 320°
2026-04-30 21:24 16.36890 -73.64768 35892 ft 461 kts 320°
2026-04-30 21:25 16.44876 -73.70271 35896 ft 460 kts 320°
2026-04-30 21:26 16.52889 -73.75793 35892 ft 460 kts 320°
2026-04-30 21:27 16.60893 -73.81315 35897 ft 460 kts 320°
2026-04-30 21:27 16.66193 -73.84976 35897 ft 460 kts 320°
2026-04-30 21:28 16.74195 -73.90507 35900 ft 460 kts 320°
2026-04-30 21:29 16.82189 -73.96037 35899 ft 459 kts 319°
2026-04-30 21:30 16.95445 -74.05223 35903 ft 458 kts 319°
2026-04-30 21:31 17.08723 -74.14445 35903 ft 458 kts 319°
2026-04-30 21:32 17.16644 -74.19959 35907 ft 458 kts 320°
2026-04-30 21:32 17.21945 -74.23646 35905 ft 458 kts 320°
2026-04-30 21:33 17.29896 -74.29183 35908 ft 458 kts 320°
2026-04-30 21:34 17.35158 -74.32850 35909 ft 457 kts 320°
2026-04-30 21:34 17.43105 -74.38392 35908 ft 457 kts 320°
2026-04-30 21:35 17.48397 -74.42087 35906 ft 457 kts 320°
2026-04-30 21:35 17.53692 -74.45786 35911 ft 457 kts 320°
2026-04-30 21:36 17.58947 -74.49459 35908 ft 457 kts 320°
2026-04-30 21:37 17.69528 -74.56865 35910 ft 457 kts 320°
2026-04-30 21:37 17.74817 -74.60571 35909 ft 457 kts 320°
2026-04-30 21:38 17.80104 -74.64287 35908 ft 457 kts 320°
2026-04-30 21:38 17.85354 -74.67976 35913 ft 457 kts 321°
2026-04-30 21:39 17.90639 -74.71688 35908 ft 457 kts 321°
2026-04-30 21:39 17.95922 -74.75399 35908 ft 457 kts 321°
2026-04-30 21:40 18.01206 -74.79114 35911 ft 457 kts 321°
2026-04-30 21:40 18.06455 -74.82808 35911 ft 457 kts 321°
2026-04-30 21:41 18.11737 -74.86528 35914 ft 457 kts 321°
2026-04-30 21:41 18.17019 -74.90250 35914 ft 457 kts 321°
2026-04-30 21:42 18.22302 -74.93977 35916 ft 457 kts 321°
2026-04-30 21:42 18.27552 -74.97682 35918 ft 457 kts 321°
2026-04-30 21:43 18.32836 -75.01414 35910 ft 457 kts 321°
2026-04-30 21:43 18.38117 -75.05146 35913 ft 457 kts 321°
2026-04-30 21:44 18.43402 -75.08884 35912 ft 457 kts 321°
2026-04-30 21:44 18.48640 -75.12601 35914 ft 457 kts 321°
2026-04-30 21:45 18.53907 -75.16338 35928 ft 457 kts 321°
2026-04-30 21:45 18.59087 -75.20173 35919 ft 454 kts 319°
2026-04-30 21:46 18.64168 -75.24127 35915 ft 454 kts 319°
2026-04-30 21:46 18.69233 -75.28087 35917 ft 454 kts 319°
2026-04-30 21:47 18.74277 -75.32018 35916 ft 454 kts 319°
2026-04-30 21:47 18.79356 -75.35972 35916 ft 454 kts 319°
2026-04-30 21:48 18.84432 -75.39924 35918 ft 454 kts 319°
2026-04-30 21:48 18.89509 -75.43881 35928 ft 453 kts 319°
2026-04-30 21:49 18.94558 -75.47818 35917 ft 450 kts 319°
2026-04-30 21:49 18.99562 -75.51725 35918 ft 450 kts 319°
2026-04-30 21:50 19.04597 -75.55660 35919 ft 450 kts 319°
2026-04-30 21:50 19.09630 -75.59595 35919 ft 450 kts 319°
2026-04-30 21:51 19.14666 -75.63536 35919 ft 450 kts 319°
2026-04-30 21:51 19.19662 -75.67448 35920 ft 450 kts 319°
2026-04-30 21:52 19.24691 -75.71393 35929 ft 450 kts 319°
2026-04-30 21:52 19.29711 -75.75341 35922 ft 449 kts 319°
2026-04-30 21:53 19.34727 -75.79282 35924 ft 449 kts 319°
2026-04-30 21:53 19.39740 -75.83220 35922 ft 449 kts 319°
2026-04-30 21:54 19.44720 -75.87135 35924 ft 449 kts 319°
2026-04-30 21:54 19.49732 -75.91078 35923 ft 449 kts 319°
2026-04-30 21:55 19.54740 -75.95022 35928 ft 449 kts 319°
2026-04-30 21:55 19.59750 -75.98970 35923 ft 449 kts 320°
2026-04-30 21:56 19.64725 -76.02900 35925 ft 449 kts 320°
2026-04-30 21:56 19.69733 -76.06857 35933 ft 448 kts 320°
2026-04-30 21:57 19.74731 -76.10808 35934 ft 448 kts 320°
2026-04-30 21:57 19.79732 -76.14763 35939 ft 448 kts 320°
2026-04-30 21:58 19.84703 -76.18697 35939 ft 448 kts 320°
2026-04-30 21:58 19.89697 -76.22652 35950 ft 448 kts 320°
2026-04-30 21:59 19.94695 -76.26615 35956 ft 448 kts 321°
2026-04-30 22:00 20.02182 -76.32557 35945 ft 448 kts 321°
2026-04-30 22:00 20.09630 -76.38473 35948 ft 447 kts 321°
2026-04-30 22:01 20.14614 -76.42435 35946 ft 447 kts 321°
2026-04-30 22:01 20.19600 -76.46405 35942 ft 447 kts 321°
2026-04-30 22:02 20.24583 -76.50374 35935 ft 447 kts 321°
2026-04-30 22:02 20.29535 -76.54329 35938 ft 449 kts 322°
2026-04-30 22:03 20.34540 -76.58333 35933 ft 451 kts 322°
2026-04-30 22:03 20.39558 -76.62343 35921 ft 451 kts 322°
2026-04-30 22:04 20.44579 -76.66351 35916 ft 451 kts 322°
2026-04-30 22:05 20.52081 -76.72333 35911 ft 451 kts 322°
2026-04-30 22:05 20.57103 -76.76340 35913 ft 451 kts 322°
2026-04-30 22:06 20.62141 -76.80365 35911 ft 456 kts 322°
2026-04-30 22:06 20.69888 -76.86561 35912 ft 470 kts 322°
2026-04-30 22:07 20.75093 -76.90728 35910 ft 471 kts 323°
2026-04-30 22:07 20.80341 -76.94933 35908 ft 471 kts 323°
2026-04-30 22:08 20.85584 -76.99137 35905 ft 471 kts 323°
2026-04-30 22:08 20.90827 -77.03346 35916 ft 471 kts 323°
2026-04-30 22:09 20.96034 -77.07538 35918 ft 471 kts 322°
2026-04-30 22:09 21.01272 -77.11755 35912 ft 471 kts 322°
2026-04-30 22:10 21.06513 -77.15974 35917 ft 471 kts 323°
2026-04-30 22:10 21.11752 -77.20193 35916 ft 471 kts 322°
2026-04-30 22:11 21.19573 -77.26501 35907 ft 471 kts 322°
2026-04-30 22:12 21.24809 -77.30727 35909 ft 471 kts 322°
2026-04-30 22:12 21.30047 -77.34960 35909 ft 471 kts 322°
2026-04-30 22:13 21.35290 -77.39202 35908 ft 475 kts 323°
2026-04-30 22:13 21.40537 -77.43454 35909 ft 476 kts 323°
2026-04-30 22:14 21.45812 -77.47746 35907 ft 476 kts 323°
2026-04-30 22:14 21.51096 -77.52045 35912 ft 476 kts 323°
2026-04-30 22:15 21.56371 -77.56338 35912 ft 476 kts 323°
2026-04-30 22:15 21.61650 -77.60637 35920 ft 476 kts 323°
2026-04-30 22:16 21.66926 -77.64938 35921 ft 476 kts 323°
2026-04-30 22:17 21.77434 -77.73515 35923 ft 475 kts 324°
2026-04-30 22:17 21.85333 -77.79973 35920 ft 476 kts 324°
2026-04-30 22:18 21.93187 -77.86427 35926 ft 475 kts 323°
2026-04-30 22:19 22.01055 -77.92937 35931 ft 475 kts 323°
2026-04-30 22:20 22.08885 -77.99416 35923 ft 472 kts 323°
2026-04-30 22:20 22.16667 -78.05862 35929 ft 472 kts 323°
2026-04-30 22:21 22.21873 -78.10179 35928 ft 472 kts 323°
2026-04-30 22:21 22.27070 -78.14493 35923 ft 471 kts 323°
2026-04-30 22:22 22.32266 -78.18810 35921 ft 471 kts 323°
2026-04-30 22:22 22.37451 -78.23123 35915 ft 469 kts 323°
2026-04-30 22:23 22.42572 -78.27386 35911 ft 467 kts 323°
2026-04-30 22:23 22.47717 -78.31674 35915 ft 467 kts 323°
2026-04-30 22:24 22.52857 -78.35965 35938 ft 466 kts 323°
2026-04-30 22:24 22.57987 -78.40259 35943 ft 466 kts 323°
2026-04-30 22:25 22.63081 -78.44519 35939 ft 466 kts 323°
2026-04-30 22:25 22.68205 -78.48803 35940 ft 465 kts 323°
2026-04-30 22:26 22.75994 -78.55041 35947 ft 463 kts 330°
2026-04-30 22:27 22.81913 -78.57568 35946 ft 461 kts 347°
2026-04-30 22:27 22.91435 -78.59155 35950 ft 462 kts 352°
2026-04-30 22:28 23.00943 -78.60789 35953 ft 461 kts 350°
2026-04-30 22:29 23.13496 -78.63181 35955 ft 459 kts 350°
2026-04-30 22:31 23.34395 -78.67179 35967 ft 457 kts 350°
2026-04-30 22:32 23.49941 -78.70158 35960 ft 454 kts 350°
2026-04-30 22:33 23.65482 -78.73144 35963 ft 453 kts 349°
2026-04-30 22:35 23.80947 -78.76127 35962 ft 452 kts 349°
2026-04-30 22:36 23.96440 -78.79117 35963 ft 452 kts 349°
2026-04-30 22:37 24.05215 -78.82584 35965 ft 450 kts 329°
2026-04-30 22:37 24.07869 -78.84399 35966 ft 450 kts 328°
2026-04-30 22:38 24.18392 -78.91730 35963 ft 450 kts 329°
2026-04-30 22:39 24.26405 -78.97085 35967 ft 450 kts 329°
2026-04-30 22:40 24.42401 -79.07755 35963 ft 449 kts 329°
2026-04-30 22:41 24.50277 -79.13025 35689 ft 421 kts 329°
2026-04-30 22:41 24.55268 -79.16358 35641 ft 428 kts 329°
2026-04-30 22:42 24.65788 -79.23377 34149 ft 447 kts 328°
2026-04-30 22:43 24.71052 -79.26894 32931 ft 439 kts 328°
2026-04-30 22:43 24.76246 -79.30368 31808 ft 434 kts 328°
2026-04-30 22:44 24.81381 -79.33807 30690 ft 430 kts 328°
2026-04-30 22:45 24.91426 -79.40548 28066 ft 417 kts 328°
2026-04-30 22:45 24.96344 -79.43851 26821 ft 410 kts 327°
2026-04-30 22:46 25.01157 -79.47084 25622 ft 401 kts 327°
2026-04-30 22:47 25.10477 -79.53360 23194 ft 387 kts 327°
2026-04-30 22:47 25.15024 -79.56443 21853 ft 379 kts 327°
2026-04-30 22:48 25.19455 -79.59450 20621 ft 373 kts 327°
2026-04-30 22:49 25.26012 -79.63903 18816 ft 365 kts 327°
2026-04-30 22:49 25.32394 -79.68239 17005 ft 352 kts 327°
2026-04-30 22:50 25.40126 -79.74393 15949 ft 342 kts 308°
2026-04-30 22:51 25.42908 -79.78655 15530 ft 343 kts 304°
2026-04-30 22:51 25.45580 -79.82952 14493 ft 336 kts 304°
2026-04-30 22:52 25.46907 -79.85065 14182 ft 334 kts 304°
2026-04-30 22:52 25.49560 -79.89250 13529 ft 334 kts 304°
2026-04-30 22:53 25.52215 -79.93409 12484 ft 329 kts 304°
2026-04-30 22:53 25.54844 -79.97520 11520 ft 325 kts 305°
2026-04-30 22:53 25.56140 -79.99546 11245 ft 316 kts 305°
2026-04-30 22:54 25.58536 -80.03295 11004 ft 289 kts 305°
2026-04-30 22:55 25.61985 -80.08728 10157 ft 284 kts 304°
2026-04-30 22:55 25.64216 -80.12245 9414 ft 274 kts 305°
2026-04-30 22:56 25.66140 -80.15845 9025 ft 273 kts 296°
2026-04-30 22:56 25.68556 -80.21509 8834 ft 271 kts 295°
2026-04-30 22:57 25.70145 -80.25274 8357 ft 268 kts 295°
2026-04-30 22:57 25.71070 -80.29208 7631 ft 267 kts 271°
2026-04-30 22:58 25.70934 -80.33290 6799 ft 264 kts 268°
2026-04-30 22:59 25.70639 -80.39276 5665 ft 258 kts 268°
2026-04-30 22:59 25.72475 -80.44393 4348 ft 273 kts 335°